Terug naar catalogus

COSMOS 2251 DEB

ActiefLEO
NORAD 34544·DEBRIS·🇷🇺 Russia

Gelanceerd Jun 16, 1993 vanaf Plesetsk Cosmodrome

Loading…

Volgende Passages (komende 24 uur)

TLE

VersSource: Space-Track

Epoch: Sep 14, 2026, 01:59 UTC

1 34544U 93036UE  26257.08270100  .00000349  00000-0  33530-3 0  9994
2 34544  73.9135 118.1295 0381546  95.6114  54.1345 13.55046974866118

Volg COSMOS 2251 DEB in realtime met AllMySat

Download on the App Store